TimeEST,TemperatureF,Dew PointF,Humidity,Sea Level PressureIn,VisibilityMPH,Wind Direction,Wind SpeedMPH,Gust SpeedMPH,PrecipitationIn,Events,Conditions,WindDirDegrees,DateUTC
12:53 AM,27.0,15.1,61,29.58,10.0,West,6.9,-,N/A,,Overcast,270,2013-02-21 05:53:00
1:53 AM,27.0,15.1,61,29.60,10.0,West,6.9,-,N/A,,Overcast,270,2013-02-21 06:53:00
2:53 AM,26.1,14.0,60,29.60,10.0,West,6.9,20.7,N/A,,Overcast,280,2013-02-21 07:53:00
3:53 AM,25.0,12.9,60,29.61,10.0,West,6.9,-,N/A,,Mostly Cloudy,280,2013-02-21 08:53:00
4:53 AM,23.0,10.9,60,29.64,10.0,WNW,9.2,19.6,N/A,,Mostly Cloudy,290,2013-02-21 09:53:00
5:53 AM,21.9,10.0,60,29.65,10.0,WNW,9.2,17.3,N/A,,Mostly Cloudy,290,2013-02-21 10:53:00
6:53 AM,21.0,10.0,63,29.67,10.0,WNW,9.2,-,N/A,,Mostly Cloudy,300,2013-02-21 11:53:00
7:53 AM,21.0,10.9,65,29.70,10.0,NW,10.4,-,N/A,,Mostly Cloudy,310,2013-02-21 12:53:00
8:53 AM,21.9,10.9,63,29.71,10.0,NW,10.4,16.1,N/A,,Mostly Cloudy,320,2013-02-21 13:53:00
9:53 AM,23.0,12.0,63,29.71,10.0,WNW,11.5,19.6,0.00,Snow,Light Snow,300,2013-02-21 14:53:00
10:53 AM,21.9,12.0,66,29.73,10.0,WNW,11.5,17.3,0.00,Snow,Light Snow,290,2013-02-21 15:53:00
11:53 AM,23.0,12.9,65,29.73,10.0,NW,12.7,19.6,0.00,Snow,Light Snow,310,2013-02-21 16:53:00
12:53 PM,24.1,15.1,69,29.73,4.0,NW,15.0,23.0,0.00,Snow,Light Snow,320,2013-02-21 17:53:00
1:53 PM,25.0,17.1,72,29.73,5.0,WNW,12.7,-,0.00,Snow,Light Snow,300,2013-02-21 18:53:00
2:15 PM,24.8,19.4,80,29.72,2.5,NW,11.5,-,0.00,Snow,Light Snow,310,2013-02-21 19:15:00
2:53 PM,26.1,19.9,78,29.75,2.0,NW,15.0,-,0.00,Snow,Light Snow,320,2013-02-21 19:53:00
3:53 PM,27.0,21.9,81,29.77,3.0,NW,13.8,-,0.00,Snow,Light Snow,320,2013-02-21 20:53:00
4:53 PM,28.9,23.0,78,29.81,10.0,NW,15.0,-,0.00,,Overcast,320,2013-02-21 21:53:00
5:53 PM,33.1,27.0,78,29.86,10.0,North,17.3,25.3,0.00,Snow,Light Snow,350,2013-02-21 22:53:00
6:00 PM,32.0,26.6,80,29.86,9.0,North,16.1,-,0.00,Snow,Light Snow,360,2013-02-21 23:00:00
6:53 PM,34.0,27.0,75,29.91,9.0,North,19.6,34.5,0.00,Snow,Light Snow,360,2013-02-21 23:53:00
7:53 PM,34.0,26.1,73,29.96,9.0,North,23.0,32.2,0.00,,Overcast,360,2013-02-22 00:53:00
8:53 PM,33.1,24.1,70,30.01,10.0,North,21.9,33.4,0.00,,Overcast,360,2013-02-22 01:53:00
9:53 PM,32.0,24.1,73,30.05,10.0,North,20.7,29.9,N/A,,Mostly Cloudy,360,2013-02-22 02:53:00
10:53 PM,32.0,23.0,69,30.09,10.0,North,17.3,28.8,N/A,,Overcast,360,2013-02-22 03:53:00
11:53 PM,30.9,21.9,69,30.12,10.0,North,21.9,29.9,N/A,,Mostly Cloudy,360,2013-02-22 04:53:00